DW2047 Weather Reports


time (UTC)temp
C
wind
direction
speed
KPH
gust
KPH
rain 1hr
cm
rain 24hr
cm
rain mn
cm
humidity
%
barometer
mb
20260904191013 33 177 4.8 24.1 0.00 0.15 0.15 54 1013.4
20260904190553 33 207 3.2 17.7 0.00 0.15 0.15 55 1013.5
20260904190037 33 155 6.4 17.7 0.00 0.15 0.15 56 1013.6
20260904185513 33 163 4.8 17.7 0.00 0.15 0.15 56 1013.6
20260904185056 33 132 1.6 17.7 0.00 0.15 0.15 55 1013.7
20260904184601 33 123 9.7 22.5 0.00 0.15 0.15 55 1013.8
20260904184015 33 140 9.7 17.7 0.00 0.15 0.15 55 1013.8
20260904183556 32 132 4.8 14.5 0.00 0.15 0.15 56 1013.9
20260904183041 32 136 6.4 19.3 0.00 0.15 0.15 56 1013.9
20260904182517 32 139 8.0 24.1 0.00 0.15 0.15 56 1013.9
20260904182057 32 147 8.0 24.1 0.00 0.15 0.15 60 1013.9
20260904181536 32 131 11.3 24.1 0.00 0.15 0.15 59 1013.9
20260904181017 32 147 8.0 19.3 0.00 0.15 0.15 62 1014.0
20260904180557 32 130 9.7 22.5 0.00 0.15 0.15 61 1014.0
20260904180036 32 136 11.3 22.5 0.00 0.15 0.15 60 1014.1
20260904175513 32 136 4.8 16.1 0.00 0.15 0.15 61 1014.1
20260904175056 32 154 8.0 20.9 0.00 0.15 0.15 61 1014.1
20260904174608 32 153 14.5 20.9 0.00 0.15 0.15 60 1014.2
20260904174014 32 142 8.0 17.7 0.00 0.15 0.15 62 1014.2
20260904173555 32 151 9.7 17.7 0.00 0.15 0.15 62 1014.2
20260904173043 32 138 9.7 17.7 0.00 0.15 0.15 60 1014.3
20260904172514 32 138 8.0 19.3 0.00 0.15 0.15 61 1014.3
20260904172057 32 171 6.4 19.3 0.00 0.15 0.15 62 1014.3
20260904171539 32 155 1.6 11.3 0.00 0.15 0.15 63 1014.4
20260904171015 31 178 4.8 16.1 0.00 0.15 0.15 64 1014.4
20260904170556 31 130 6.4 16.1 0.00 0.15 0.15 63 1014.5
20260904170047 31 218 1.6 12.9 0.00 0.15 0.15 64 1014.5
20260904165515 31 165 3.2 16.1 0.00 0.15 0.15 66 1014.5
20260904165057 31 148 6.4 16.1 0.00 0.15 0.15 65 1014.5
20260904164540 31 140 3.2 14.5 0.00 0.15 0.15 65 1014.5
20260904164017 31 148 3.2 16.1 0.00 0.15 0.15 64 1014.4
20260904163558 31 145 8.0 16.1 0.00 0.15 0.15 64 1014.4
20260904163051 31 138 6.4 16.1 0.00 0.15 0.15 67 1014.4
20260904162518 30 141 9.7 16.1 0.00 0.15 0.15 67 1014.4
20260904162059 30 133 8.0 16.1 0.00 0.15 0.15 69 1014.3
20260904161542 30 177 6.4 14.5 0.00 0.15 0.15 69 1014.3
20260904161019 30 144 6.4 12.9 0.00 0.15 0.15 71 1014.4
20260904160601 30 225 3.2 12.9 0.00 0.15 0.15 72 1014.4
20260904160045 30 167 1.6 12.9 0.00 0.15 0.15 75 1014.4
20260904155520 29 188 3.2 16.1 0.00 0.15 0.15 75 1014.3
20260904155102 29 185 4.8 16.1 0.00 0.15 0.15 76 1014.4
20260904154547 28 143 9.7 16.1 0.00 0.15 0.15 77 1014.4
20260904154024 28 141 3.2 14.5 0.00 0.15 0.15 81 1014.4
20260904153606 28 139 8.0 12.9 0.00 0.15 0.15 80 1014.3
20260904153101 28 162 3.2 11.3 0.00 0.15 0.15 82 1014.4
20260904152524 28 144 6.4 14.5 0.00 0.15 0.15 81 1014.4
20260904152000 27 211 4.8 9.7 0.00 0.15 0.15 83 1014.3
20260904151552 27 130 3.2 8.0 0.00 0.15 0.15 85 1014.3
20260904151026 27 208 1.6 12.9 0.00 0.15 0.15 85 1014.3
20260904150502 27 170 3.2 12.9 0.00 0.15 0.15 87 1014.3
20260904150050 27 247 1.6 11.3 0.00 0.15 0.15 87 1014.2
20260904145526 26 155 0.0 8.0 0.00 0.15 0.15 89 1014.2
20260904145004 26 197 1.6 9.7 0.00 0.15 0.15 89 1014.2
20260904144552 26 135 3.2 9.7 0.00 0.15 0.15 90 1014.1
20260904144028 26 187 1.6 6.4 0.00 0.15 0.15 90 1014.1
20260904143505 26 167 3.2 12.9 0.00 0.15 0.15 91 1014.1
20260904143054 26 167 4.8 12.9 0.00 0.15 0.15 91 1014.1
20260904142530 26 146 3.2 11.3 0.00 0.15 0.15 91 1014.1
20260904142006 26 165 3.2 12.9 0.00 0.15 0.15 91 1014.0
20260904141556 26 155 3.2 12.9 0.00 0.15 0.15 91 1014.0
20260904141033 26 178 1.6 6.4 0.03 0.15 0.15 91 1014.1
20260904140508 25 178 1.6 6.4 0.03 0.15 0.15 91 1014.0
20260904135535 25 178 0.0 4.8 0.05 0.15 0.15 91 1013.9
20260904135012 25 161 0.0 8.0 0.08 0.15 0.15 91 1013.8
20260904134608 25 254 1.6 8.0 0.10 0.15 0.15 91 1013.7
20260904134036 25 244 0.0 6.4 0.13 0.15 0.15 91 1013.7
20260904133510 25 194 1.6 6.4 0.13 0.15 0.15 91 1013.7
20260904133104 25 194 0.0 4.8 0.15 0.15 0.15 91 1013.7
20260904132537 25 194 1.6 4.8 0.15 0.15 0.15 91 1013.7
20260904132014 25 198 0.0 6.4 0.15 0.15 0.15 91 1013.8
20260904131603 25 198 0.0 4.8 0.15 0.15 0.15 91 1013.8
20260904131040 25 199 1.6 6.4 0.13 0.13 0.13 91 1013.8
20260904130515 25 202 1.6 6.4 0.13 0.13 0.13 91 1013.8
20260904130104 25 211 1.6 4.8 0.10 0.10 0.10 91 1013.9
20260904125541 25 138 0.0 0.0 0.10 0.10 0.10 91 1014.0
20260904125021 25 138 0.0 0.0 0.08 0.08 0.08 90 1014.0
20260904124502 25 138 0.0 0.0 0.05 0.05 0.05 90 1014.0
20260904124042 25 138 0.0 4.8 0.03 0.03 0.03 90 1014.0
20260904123519 25 138 0.0 6.4 0.03 0.03 0.03 90 1014.0
20260904123004 25 138 1.6 9.7 0.00 0.00 0.00 89 1014.0
20260904122546 26 153 3.2 9.7 0.00 0.00 0.00 89 1014.0
20260904122022 26 143 1.6 6.4 0.00 0.00 0.00 89 1013.9
20260904121506 26 143 1.6 6.4 0.00 0.00 0.00 89 1013.9
20260904121052 26 143 1.6 8.0 0.00 0.00 0.00 89 1013.9
20260904120525 26 143 3.2 8.0 0.00 0.00 0.00 88 1013.8
20260904120016 26 134 3.2 8.0 0.00 0.00 0.00 88 1013.7
20260904115554 26 74 3.2 6.4 0.00 0.00 0.00 88 1013.6
20260904115032 26 115 1.6 8.0 0.00 0.00 0.00 88 1013.5
20260904114517 26 144 0.0 9.7 0.00 0.00 0.00 88 1013.4
20260904114100 26 146 3.2 9.7 0.00 0.00 0.00 87 1013.3
20260904113535 26 150 0.0 14.5 0.00 0.00 0.00 87 1013.2
20260904113024 26 152 1.6 9.7 0.00 0.00 0.00 87 1013.1
20260904112602 26 158 3.2 8.0 0.00 0.00 0.00 87 1013.0
20260904112039 26 151 1.6 8.0 0.00 0.00 0.00 86 1012.9
20260904111524 26 151 3.2 8.0 0.00 0.00 0.00 86 1012.8
20260904111002 26 151 0.0 11.3 0.00 0.00 0.00 85 1012.8
20260904110543 26 153 1.6 11.3 0.00 0.00 0.00 85 1012.8
20260904110027 26 148 4.8 9.7 0.00 0.00 0.00 85 1012.8
20260904105504 26 180 1.6 11.3 0.00 0.00 0.00 85 1012.8
20260904105044 26 159 4.8 14.5 0.00 0.00 0.00 85 1012.7
20260904104531 26 153 4.8 16.1 0.00 0.00 0.00 85 1012.7
20260904104007 26 147 4.8 16.1 0.00 0.00 0.00 85 1012.7
20260904103546 26 146 6.4 14.5 0.00 0.00 0.00 85 1012.6
20260904103031 26 140 6.4 12.9 0.00 0.00 0.00 85 1012.6
20260904102507 26 147 6.4 12.9 0.00 0.00 0.00 85 1012.5
20260904102048 26 154 6.4 12.9 0.00 0.00 0.00 85 1012.6
20260904101535 26 149 6.4 11.3 0.00 0.00 0.00 85 1012.6
20260904101010 26 142 3.2 11.3 0.00 0.00 0.00 85 1012.6
20260904100555 26 154 3.2 11.3 0.00 0.00 0.00 85 1012.6
20260904100044 26 126 3.2 11.3 0.00 0.00 0.00 85 1012.5
20260904095516 26 146 3.2 16.1 0.00 0.00 0.00 84 1012.4
20260904095059 26 140 8.0 16.1 0.00 0.00 0.00 84 1012.3
20260904094543 26 165 3.2 12.9 0.00 0.00 0.00 84 1012.3
20260904094019 26 150 3.2 17.7 0.00 0.00 0.00 84 1012.2
20260904093603 26 144 3.2 17.7 0.00 0.00 0.00 84 1012.3
20260904093058 26 141 6.4 12.9 0.00 0.00 0.00 84 1012.3
20260904092525 26 147 4.8 12.9 0.00 0.00 0.00 84 1012.2
20260904092104 26 168 6.4 14.5 0.00 0.00 0.00 84 1012.2
20260904091549 26 140 6.4 17.7 0.00 0.00 0.00 84 1012.3
20260904091025 26 143 4.8 14.5 0.00 0.00 0.00 83 1012.3
20260904090502 26 124 4.8 17.7 0.00 0.00 0.00 83 1012.3
20260904090053 26 144 4.8 17.7 0.00 0.00 0.00 83 1012.3
20260904085529 26 137 3.2 14.5 0.00 0.00 0.00 84 1012.4
20260904085007 26 150 6.4 14.5 0.00 0.00 0.00 84 1012.4
20260904084557 26 144 4.8 16.1 0.00 0.00 0.00 84 1012.4
20260904084033 26 149 6.4 12.9 0.00 0.00 0.00 84 1012.4
20260904083509 26 142 3.2 16.1 0.00 0.00 0.00 84 1012.4
20260904083100 26 148 6.4 17.7 0.00 0.00 0.00 83 1012.4
20260904082536 27 130 4.8 17.7 0.00 0.00 0.00 83 1012.4
20260904082013 27 133 6.4 16.1 0.00 0.00 0.00 83 1012.5
20260904081604 27 159 6.4 16.1 0.00 0.00 0.00 83 1012.5
20260904081041 27 137 6.4 16.1 0.00 0.00 0.00 83 1012.5
20260904080517 27 135 4.8 19.3 0.00 0.00 0.00 83 1012.5
20260904080005 27 131 8.0 19.3 0.00 0.00 0.00 83 1012.5
20260904075546 26 157 4.8 14.5 0.00 0.00 0.00 83 1012.4
20260904075022 26 136 8.0 14.5 0.00 0.00 0.00 83 1012.4
20260904074508 26 175 6.4 14.5 0.00 0.00 0.00 83 1012.4
20260904074053 26 147 4.8 14.5 0.00 0.00 0.00 82 1012.3
20260904073526 27 139 6.4 16.1 0.00 0.00 0.00 82 1012.4
20260904073034 27 171 4.8 9.7 0.00 0.00 0.00 82 1012.5
20260904072554 27 140 3.2 12.9 0.00 0.00 0.00 82 1012.5
20260904072030 26 151 6.4 17.7 0.00 0.00 0.00 82 1012.5
20260904071517 26 130 8.0 17.7 0.00 0.00 0.00 83 1012.5
20260904071059 26 154 6.4 17.7 0.00 0.00 0.00 82 1012.6
20260904070535 26 178 6.4 17.7 0.00 0.00 0.00 82 1012.7
20260904070022 26 133 4.8 14.5 0.00 0.00 0.00 82 1012.7
20260904065603 26 149 4.8 16.1 0.00 0.00 0.00 82 1012.7
20260904065039 26 161 6.4 19.3 0.00 0.00 0.00 82 1012.7
20260904064527 27 151 6.4 19.3 0.00 0.00 0.00 82 1012.8
20260904064106 27 144 4.8 16.1 0.00 0.00 0.00 82 1012.8
20260904063541 27 140 8.0 19.3 0.00 0.00 0.00 82 1012.7
20260904063028 27 153 8.0 19.3 0.00 0.00 0.00 82 1012.7
20260904062504 26 160 6.4 17.7 0.00 0.00 0.00 82 1012.6
20260904062046 26 142 9.7 17.7 0.00 0.00 0.00 82 1012.7
20260904061533 27 165 8.0 17.7 0.00 0.00 0.00 82 1012.7
20260904061009 27 163 8.0 19.3 0.00 0.00 0.00 82 1012.7
20260904060551 27 180 9.7 17.7 0.00 0.00 0.00 82 1012.7
20260904060035 27 129 8.0 17.7 0.00 0.00 0.00 81 1012.7
20260904055510 27 150 6.4 14.5 0.00 0.00 0.00 81 1012.7
20260904055052 27 159 8.0 16.1 0.00 0.00 0.00 81 1012.7
20260904054538 27 143 6.4 16.1 0.00 0.00 0.00 81 1012.6
20260904054018 26 154 6.4 17.7 0.00 0.00 0.00 82 1012.6
20260904053555 26 153 6.4 19.3 0.00 0.00 0.00 82 1012.6
20260904053052 26 136 8.0 20.9 0.00 0.00 0.00 82 1012.7
20260904052520 26 136 6.4 20.9 0.00 0.00 0.00 81 1012.6
20260904052103 26 135 3.2 19.3 0.00 0.00 0.00 81 1012.5
20260904051551 27 139 9.7 19.3 0.00 0.00 0.00 81 1012.5
20260904051025 27 142 9.7 19.3 0.00 0.00 0.00 81 1012.5
20260904050502 27 144 9.7 20.9 0.00 0.00 0.00 81 1012.6
20260904050056 26 133 8.0 20.9 0.00 0.00 0.00 81 1012.5
20260904045528 26 155 8.0 17.7 0.00 0.00 0.00 81 1012.4
20260904045005 26 141 4.8 16.1 0.00 0.00 0.00 81 1012.4
20260904044557 26 134 6.4 16.1 0.00 0.00 0.00 81 1012.4
20260904044033 26 169 6.4 14.5 0.00 0.00 0.00 81 1012.4
20260904043511 26 140 6.4 17.7 0.00 0.00 0.00 80 1012.4
20260904043103 26 139 9.7 17.7 0.00 0.00 0.00 80 1012.3
20260904042540 27 142 6.4 14.5 0.00 0.00 0.00 79 1012.4
20260904042017 27 153 6.4 20.9 0.00 0.00 0.00 79 1012.5
20260904041505 27 126 8.0 20.9 0.00 0.00 0.00 78 1012.5
20260904041046 27 153 8.0 14.5 0.00 0.00 0.00 78 1012.5
20260904040522 27 140 6.4 16.1 0.00 0.00 0.00 78 1012.6
20260904040011 27 125 6.4 12.9 0.00 0.00 0.00 78 1012.4
20260904035552 27 152 6.4 16.1 0.00 0.00 0.00 78 1012.4
20260904035029 27 146 9.7 16.1 0.00 0.00 0.00 77 1012.3
20260904034519 27 142 6.4 16.1 0.00 0.00 0.00 77 1012.4
20260904034058 27 144 6.4 22.5 0.00 0.00 0.00 76 1012.3
20260904033534 27 142 11.3 22.5 0.00 0.00 0.00 76 1012.3
20260904033033 27 141 4.8 17.7 0.00 0.00 0.00 75 1012.3
20260904032604 27 130 6.4 22.5 0.00 0.00 0.00 75 1012.2
20260904032041 27 134 6.4 22.5 0.00 0.00 0.00 75 1012.2
20260904031533 27 146 8.0 17.7 0.00 0.00 0.00 75 1012.2
20260904031009 27 169 6.4 12.9 0.00 0.00 0.00 74 1012.1
20260904030551 27 146 6.4 17.7 0.00 0.00 0.00 74 1012.1
20260904030038 27 136 8.0 17.7 0.00 0.00 0.00 73 1012.0
20260904025515 27 169 6.4 19.3 0.00 0.00 0.00 73 1011.9
20260904025056 27 150 6.4 22.5 0.00 0.00 0.00 73 1012.0
20260904024545 27 153 9.7 22.5 0.00 0.00 0.00 72 1012.0
20260904024020 27 125 6.4 19.3 0.00 0.00 0.00 72 1011.9
20260904023602 27 136 8.0 17.7 0.00 0.00 0.00 71 1011.8
20260904023050 28 145 8.0 19.3 0.00 0.00 0.00 70 1011.8
20260904022526 28 130 6.4 16.1 0.00 0.00 0.00 70 1011.7
20260904022002 28 149 4.8 16.1 0.00 0.00 0.00 69 1011.7
20260904021557 28 156 4.8 17.7 0.00 0.00 0.00 69 1011.7
20260904021033 28 153 6.4 17.7 0.00 0.00 0.00 69 1011.7
20260904020509 28 93 6.4 14.5 0.00 0.00 0.00 69 1011.6
20260904020126 28 151 8.0 17.7 0.00 0.00 0.00 69 1011.5
20260904015540 28 141 4.8 17.7 0.00 0.00 0.00 68 1011.3
20260904015016 28 142 8.0 17.7 0.00 0.00 0.00 68 1011.2
20260904014503 28 159 6.4 17.7 0.00 0.00 0.00 68 1011.2
20260904014044 28 134 11.3 17.7 0.00 0.00 0.00 68 1011.2
20260904013524 28 147 4.8 17.7 0.00 0.00 0.00 68 1011.1
20260904013016 28 135 8.0 20.9 0.00 0.00 0.00 68 1011.1
20260904012550 28 120 8.0 22.5 0.00 0.00 0.00 68 1011.2
20260904012027 28 88 9.7 19.3 0.00 0.00 0.00 68 1011.2
20260904011516 28 135 8.0 19.3 0.00 0.00 0.00 68 1011.1
20260904011059 28 129 8.0 22.5 0.00 0.00 0.00 68 1011.1
20260904010533 29 159 4.8 16.1 0.00 0.00 0.00 68 1011.0
20260904010022 29 110 6.4 14.5 0.00 0.00 0.00 68 1010.9
20260904005605 29 130 3.2 14.5 0.00 0.00 0.00 68 1010.8
20260904005040 29 94 4.8 16.1 0.00 0.00 0.00 67 1010.8
20260904004530 29 132 6.4 17.7 0.00 0.00 0.00 67 1010.8
20260904004005 29 111 8.0 20.9 0.00 0.00 0.00 67 1010.7
20260904003546 30 159 12.9 24.1 0.00 0.00 0.00 66 1010.8
20260904003039 30 140 11.3 24.1 0.00 0.00 0.00 66 1010.8
20260904002513 30 111 11.3 20.9 0.00 0.00 0.00 65 1010.8
20260904002055 30 134 6.4 17.7 0.00 0.00 0.00 65 1010.8
20260904001544 30 130 4.8 19.3 0.00 0.00 0.00 65 1010.7
20260904001020 31 135 6.4 24.1 0.00 0.00 0.00 65 1010.7
20260904000601 31 117 11.3 24.1 0.00 0.00 0.00 64 1010.7
20260904000050 31 132 8.0 25.7 0.00 0.00 0.00 64 1010.6
20260903235526 31 130 11.3 25.7 0.00 0.00 0.00 65 1010.6
20260903235003 31 104 12.9 24.1 0.00 0.00 0.00 65 1010.5
20260903234605 31 77 9.7 24.1 0.00 0.00 0.00 64 1010.5
20260903234034 31 126 11.3 24.1 0.00 0.00 0.00 64 1010.4
20260903233511 32 148 16.1 24.1 0.00 0.00 0.00 63 1010.4
20260903233105 32 136 6.4 24.1 0.00 0.00 0.00 63 1010.3
20260903232543 32 111 12.9 24.1 0.00 0.00 0.00 63 1010.3
20260903232021 32 128 11.3 24.1 0.00 0.00 0.00 63 1010.2
20260903231513 32 146 9.7 27.4 0.00 0.00 0.00 64 1010.3
20260903231056 32 132 9.7 27.4 0.00 0.00 0.00 64 1010.2
20260903230534 33 121 8.0 22.5 0.00 0.00 0.00 65 1010.2
20260903230043 33 119 9.7 25.7 0.00 0.00 0.00 64 1010.1
20260903225502 33 124 12.9 25.7 0.00 0.00 0.00 63 1010.0
20260903225043 33 113 4.8 20.9 0.00 0.00 0.00 62 1009.8
20260903224532 33 58 6.4 20.9 0.00 0.00 0.00 61 1009.9
20260903224008 33 128 6.4 27.4 0.00 0.00 0.00 61 1009.8
20260903223550 33 129 11.3 27.4 0.00 0.00 0.00 60 1009.8
20260903223040 34 103 8.0 22.5 0.00 0.00 0.00 59 1009.8
20260903222516 34 137 9.7 29.0 0.00 0.00 0.00 58 1009.9
20260903222057 34 140 8.0 24.1 0.00 0.00 0.00 59 1009.8
20260903221547 35 101 8.0 19.3 0.00 0.00 0.00 57 1009.8
20260903221026 35 145 8.0 20.9 0.00 0.00 0.00 57 1009.8
20260903220604 35 136 8.0 20.9 0.00 0.00 0.00 57 1009.8
20260903220105 35 119 8.0 17.7 0.00 0.00 0.00 56 1009.8
20260903215531 34 120 6.4 22.5 0.00 0.00 0.00 57 1009.8
20260903215006 34 117 9.7 24.1 0.00 0.00 0.00 56 1009.8
20260903214602 33 59 6.4 24.1 0.00 0.00 0.00 56 1009.7
20260903214038 33 155 6.4 16.1 0.00 0.00 0.00 56 1009.8
20260903213517 33 80 6.4 19.3 0.00 0.00 0.00 56 1009.9
20260903213001 33 130 6.4 20.9 0.00 0.00 0.00 56 1010.0
20260903212542 34 134 8.0 20.9 0.00 0.00 0.00 56 1010.0
20260903212021 34 121 9.7 19.3 0.00 0.00 0.00 56 1010.0
20260903211509 34 138 6.4 17.7 0.00 0.00 0.00 56 1010.0
20260903211050 34 127 6.4 19.3 0.00 0.00 0.00 56 1010.1
20260903210527 34 163 8.0 19.3 0.00 0.00 0.00 56 1010.1
20260903210018 34 169 4.8 14.5 0.00 0.00 0.00 55 1010.2
20260903205559 35 62 4.8 17.7 0.00 0.00 0.00 55 1010.1
20260903205035 35 132 6.4 17.7 0.00 0.00 0.00 55 1010.2
20260903204528 35 93 6.4 24.1 0.00 0.00 0.00 55 1010.3
20260903204003 35 78 8.0 24.1 0.00 0.00 0.00 55 1010.3
20260903203545 35 148 4.8 24.1 0.00 0.00 0.00 54 1010.3
20260903203034 35 131 9.7 24.1 0.00 0.00 0.00 54 1010.6
20260903202511 35 106 8.0 19.3 0.00 0.00 0.00 55 1010.8
20260903202052 35 147 4.8 19.3 0.00 0.00 0.00 56 1010.9
20260903201543 35 132 6.4 19.3 0.00 0.00 0.00 55 1011.0
20260903201019 35 54 4.8 16.1 0.00 0.00 0.00 56 1011.0
20260903200559 35 117 3.2 14.5 0.00 0.00 0.00 56 1011.0
20260903200051 34 134 3.2 16.1 0.00 0.00 0.00 56 1011.1
20260903195526 34 134 3.2 16.1 0.00 0.00 0.00 55 1011.0
20260903195003 33 59 3.2 9.7 0.00 0.00 0.00 58 1011.0
20260903194605 33 123 3.2 11.3 0.00 0.00 0.00 58 1011.1
20260903194035 33 67 3.2 12.9 0.00 0.00 0.00 59 1011.2
20260903193511 33 78 1.6 14.5 0.00 0.00 0.00 60 1011.2
20260903193002 33 89 4.8 16.1 0.00 0.00 0.00 59 1011.4
20260903192545 33 114 4.8 16.1 0.00 0.00 0.00 58 1011.4
20260903192018 33 141 3.2 12.9 0.00 0.00 0.00 58 1011.5
20260903191509 33 126 4.8 12.9 0.00 0.00 0.00 58 1011.5